This is the latest recevied weather packets stored in our database for station/object N2UGS-WX. If no packets are shown the sender has not sent any weather packets the latest 10 day(s).
| Time | Temp. | Humidity | Pressure | Rain* | Wind** | Luminosity | Snow |
|---|---|---|---|---|---|---|---|
| 1777477802 | 9.44° C | 91% | 1011.2 hPa | 1.27 mm | - | - | - |
| 1777476902 | 10° C | 88% | 1011.5 hPa | 0.51 mm | - | - | - |
| 1777476003 | 10.56° C | 83% | 1011.5 hPa | 0 mm | - | - | - |
| 1777475103 | 11.11° C | 82% | 1011.5 hPa | 0 mm | - | - | - |
| 1777474502 | 11.11° C | 81% | 1011.5 hPa | 0 mm | - | - | - |
| 1777473842 | 11.67° C | 82% | 1011.2 hPa | 0 mm | - | - | - |
| 1777472943 | 11.11° C | 81% | 1011.9 hPa | 0 mm | - | - | - |
| 1777472042 | 11.67° C | 79% | 1012.2 hPa | 0 mm | - | - | - |
| 1777471203 | 12.22° C | 78% | 1012.2 hPa | 0 mm | - | - | - |
| 1777470244 | 11.67° C | 78% | 1012.2 hPa | 0 mm | - | - | - |
| 1777469343 | 11.67° C | 78% | 1012.2 hPa | 0 mm | - | - | - |
| 1777468442 | 11.11° C | 78% | 1012.2 hPa | 0 mm | - | - | - |
| 1777467842 | 11.11° C | 77% | 1011.9 hPa | 0 mm | - | - | - |
| 1777466942 | 11.11° C | 77% | 1011.9 hPa | 0 mm | - | - | - |
| 1777466042 | 11.11° C | 76% | 1012.2 hPa | 0 mm | - | - | - |
| 1777465142 | 11.67° C | 78% | 1012.5 hPa | 0 mm | - | - | - |
| 1777464003 | 11.11° C | 80% | 1012.9 hPa | 0 mm | - | - | - |
| 1777463342 | 11.11° C | 82% | 1012.9 hPa | 0 mm | - | - | - |
| 1777462502 | 11.11° C | 84% | 1012.9 hPa | 0 mm | - | - | - |
| 1777461842 | 11.11° C | 86% | 1012.9 hPa | 0 mm | - | - | - |
| 1777461003 | 11.11° C | 87% | 1012.9 hPa | 0 mm | - | - | - |
| 1777460342 | 11.11° C | 88% | 1012.5 hPa | 0 mm | - | - | - |
| 1777459503 | 11.11° C | 89% | 1012.5 hPa | 0 mm | - | - | - |
| 1777458542 | 11.11° C | 89% | 1012.9 hPa | 0 mm | - | - | - |
| 1777457702 | 11.11° C | 89% | 1012.9 hPa | 0 mm | - | - | - |
* Rain latest hour (hover to see other rain measurements)
** Current wind speed in m/s (hover to see current wind gust speed)